Albany, NY

12:38 AM EST on November 19, 2017 (GMT -0500)
Albany International

Weather History for KALB - March, 2014

Change the Weather History Date:

Friday, March 7, 2014

  Actual Average Record
Temperature  
Mean Temperature 20 °F 32 °F  
Max Temperature 37 °F 41 °F 62 °F (1974)
Min Temperature 3 °F 22 °F -6 °F (1950)
Degree Days  
Heating Degree Days 45 33  
Month to date heating degree days 336 240  
Since 1 July heating degree days 5453 5184  
Cooling Degree Days 0 0  
Month to date cooling degree days 0 0  
Year to date cooling degree days 0 0  
Moisture  
Dew Point 9 °F    
Average Humidity 64    
Maximum Humidity 81    
Minimum Humidity 47    
Precipitation  
Precipitation 0.00 in 0.10 in 1.41 in (1956)
Month to date precipitation T 0.67  
Year to date precipitation 5.79 5.46  
Snow  
Snow 0.00 in 0.40 in 10.30 in (1967)
Month to date snowfall T 3.2  
Since 1 July snowfall 65.2 50.1  
Snow Depth 4.00 in    
Sea Level Pressure  
Sea Level Pressure 30.25 in    
Wind  
Wind Speed 4 mph (SSW)    
Max Wind Speed 17 mph    
Max Gust Speed 21 mph    
Visibility 10 miles    
Events      
T = Trace of Precipitation, MM = Missing Value Source: NWS Daily Summary

Daily Weather History Graph

Daily Weather History Graph

Search for Another Location

Airport or City:

Trip Planner

Search our weather history database for the weather conditions in past years. The results will help you decide how hot, cold, wet, or windy it might be!

Date:

Astronomy

Mar. 07, 2014 Rise Set
Actual Time 6:20 AM EST 5:52 PM EST
Civil Twilight 5:52 AM EST 6:20 PM EST
Nautical Twilight 5:20 AM EST 6:53 PM EST
Astronomical Twilight 4:47 AM EST 7:26 PM EST
Moon 10:03 AM EST (3/7) 12:02 AM EST (3/7)
Length of Visible Light 12h 27m
Length of Day
11h 31m
Waxing Crescent, 42% of the Moon is Illuminated
Mar 7
Waxing Crescent
Mar 8
First Quarter
Mar 16
Full
Mar 23
Last Quarter
Mar 30
New

Hourly Weather History & Observations

Time (EST) Temp. Windchill Dew Point Humidity Pressure Visibility Wind Dir Wind Speed Gust Speed Precip Events Conditions
12:51 AM 9.0 °F - -0.0 °F 67% 30.48 in 10.0 mi Calm Calm - N/A   Partly Cloudy
1:51 AM 8.1 °F - -0.0 °F 70% 30.46 in 10.0 mi Calm Calm - N/A   Partly Cloudy
2:51 AM 7.0 °F - -0.0 °F 73% 30.43 in 10.0 mi Calm Calm - N/A   Partly Cloudy
3:51 AM 6.1 °F -0.9 °F -0.0 °F 76% 30.41 in 10.0 mi North 3.5 mph - N/A   Partly Cloudy
4:51 AM 3.9 °F - -2.0 °F 76% 30.40 in 10.0 mi Calm Calm - N/A   Partly Cloudy
5:51 AM 3.9 °F -6.9 °F -2.9 °F 73% 30.38 in 10.0 mi North 5.8 mph - N/A   Partly Cloudy
6:33 AM 3.0 °F - -2.9 °F 76% 30.37 in 10.0 mi Calm Calm - N/A   Mostly Cloudy
6:51 AM 3.9 °F -6.9 °F -2.9 °F 73% 30.40 in 10.0 mi North 5.8 mph - N/A   Mostly Cloudy
7:14 AM 3.9 °F - -2.9 °F 73% 30.37 in 10.0 mi Calm Calm - N/A   Mostly Cloudy
7:51 AM 9.0 °F - -0.9 °F 64% 30.38 in 10.0 mi Calm Calm - N/A   Scattered Clouds
8:04 AM 9.0 °F 2.4 °F -0.0 °F 67% 30.35 in 10.0 mi NNW 3.5 mph - N/A   Mostly Cloudy
8:51 AM 12.9 °F 2.6 °F 1.0 °F 59% 30.38 in 10.0 mi North 6.9 mph - N/A   Mostly Cloudy
9:51 AM 21.0 °F - 7.0 °F 55% 30.35 in 10.0 mi Calm Calm - N/A   Mostly Cloudy
10:29 AM 25.0 °F - 10.0 °F 53% 30.30 in 10.0 mi Calm Calm - N/A   Mostly Cloudy
10:51 AM 26.1 °F 19.4 °F 14.0 °F 60% 30.31 in 10.0 mi South 5.8 mph - N/A   Mostly Cloudy
11:51 AM 30.0 °F 20.0 °F 18.0 °F 61% 30.27 in 10.0 mi South 12.7 mph - N/A   Scattered Clouds
12:51 PM 33.1 °F 24.4 °F 19.9 °F 59% 30.22 in 10.0 mi South 11.5 mph 20.7 mph N/A   Mostly Cloudy
1:51 PM 34.0 °F 25.0 °F 19.0 °F 54% 30.17 in 10.0 mi SSE 12.7 mph 18.4 mph N/A   Mostly Cloudy
2:51 PM 36.0 °F 29.6 °F 18.0 °F 48% 30.14 in 10.0 mi South 8.1 mph - N/A   Mostly Cloudy
3:51 PM 36.0 °F 29.6 °F 18.0 °F 48% 30.10 in 10.0 mi SSW 8.1 mph - N/A   Mostly Cloudy
4:51 PM 36.0 °F 29.6 °F 19.9 °F 52% 30.09 in 10.0 mi SSW 8.1 mph - N/A   Mostly Cloudy
5:51 PM 35.1 °F 29.3 °F 19.0 °F 52% 30.08 in 10.0 mi South 6.9 mph - N/A   Mostly Cloudy
6:51 PM 34.0 °F - 18.0 °F 52% 30.07 in 10.0 mi Calm Calm - N/A   Partly Cloudy
7:51 PM 30.0 °F - 19.0 °F 64% 30.05 in 10.0 mi Calm Calm - N/A   Partly Cloudy
8:51 PM 27.0 °F - 19.0 °F 72% 30.04 in 10.0 mi Calm Calm - N/A   Clear
9:51 PM 24.1 °F - 17.1 °F 75% 30.02 in 10.0 mi Calm Calm - N/A   Clear
10:51 PM 23.0 °F - 17.1 °F 78% 30.00 in 10.0 mi Calm Calm - N/A   Partly Cloudy
11:51 PM 23.0 °F - 17.1 °F 78% 29.97 in 10.0 mi Calm Calm - N/A   Partly Cloudy